Regional Weather Roundup
Issued by NWS

Home | Current Version | Previous Version | Text Only | Print | Product List | Glossary Off
Versions: 1 2 3 4 5 6 7 8 9 10 11 12 13 14 15 16 17 18 19 20 21 22 23 24 25 26 27 28 29 30 31 32 33 34 35 36 37 38 39 40 41 42 43 44 45 46 47 48 49 50

000
ASUS43 KMPX 230701
RWRMN
WEATHER ROUNDUP FOR MINNESOTA
NATIONAL WEATHER SERVICE TWIN CITIES/CHANHASSEN MN
200 AM CDT WED JUL 23 2014


NOTE: "FAIR" INDICATES FEW OR NO CLOUDS BELOW 12,000 FEET WITH NO
SIGNIFICANT WEATHER AND/OR OBSTRUCTIONS TO VISIBILITY. N/A MEANS
CURRENT SKY AND/OR WEATHER CONDITIONS ARE NOT AVAILABLE.

MNZ060>063-068>070-230800-
   Twin Cities Metro

CITY           SKY/WX    TMP DP  RH WIND       PRES   REMARKS
TWIN CITIES    CLEAR     69  56  62 N9        30.18R
ST PAUL          N/A     67  57  70 N8        30.18R
CRYSTAL        CLEAR     67  55  65 N6        30.18R
BLAINE         CLEAR     64  57  77 N5        30.19R
LAKEVILLE      CLEAR     61  55  82 NW5       30.18S
EDEN PRAIRIE   CLEAR     66  56  70 N7        30.17S
SOUTH ST PAUL  CLEAR     68  56  65 N8        30.17S
LAKE ELMO      FAIR      64  57  77 N3        30.19R
$$
MNZ001>005-007-008-013>017-022>024-027-028-230800-
   Northwest Minnesota

CITY           SKY/WX    TMP DP  RH WIND       PRES   REMARKS
BEMIDJI        CLEAR     53  51  94 NW6       30.25R
HALLOCK        CLEAR     59  57  94 N5        30.27R
ROSEAU         CLEAR     55  52  88 NW5       30.26R
WARROAD        CLEAR     57  54  88 NW7       30.25S
THIEF RVR FALL CLEAR     61  55  82 CALM      30.27R
CROOKSTON      CLEAR     59  57  94 CALM      30.27S
FOSSTON        CLEAR     55  54  94 CALM      30.27R
DETROIT LAKES  CLEAR     61  55  82 NW3       30.28R
MOORHEAD       PTCLDY    61  61 100 CALM      30.27R
PARK RAPIDS    CLEAR     55  52  89 NW5       30.25S
$$
MNZ006-009>011-018-025>026-230800-
   North Central Minnesota

CITY           SKY/WX    TMP DP  RH WIND       PRES   REMARKS
BAUDETTE       PTCLDY    60  56  86 NW3       30.24R
FLAG ISLAND    CLEAR     64  57  77 N5        30.23R
INTL FALLS     CLEAR     60  54  80 NE5       30.22R
WASKISH        PTCLDY    63  55  77 NW6       30.24R
BIG FORK       CLEAR     55  54  94 NW1       30.23R
LONGVILLE      CLEAR     55  55 100 CALM      30.23R
GRAND RAPIDS   CLEAR     55  52  88 CALM      30.22R
CRANE LAKE     CLEAR     54  54 100 CALM      30.23R
ORR            PTCLDY    55  52  88 CALM      30.20R
$$
MNZ012-019>021-037-230800-
   Northeast Minnesota

CITY           SKY/WX    TMP DP  RH WIND       PRES   REMARKS
DULUTH         PTCLDY    60  52  74 NW5       30.19R
ELY            PTCLDY    55  54  94 CALM      30.20S
HIBBING        CLEAR     52  50  93 CALM      30.20R
DULUTH HARBOR  CLEAR     64  57  77 W3        30.17S
TWO HARBORS    CLEAR     61  52  72 NW5       30.16S
SILVER BAY     CLEAR     52  52 100 CALM      30.17R
GRAND MARAIS     N/A     64  54  69 N6        30.15S
G MARAIS ARPRT CLOUDY    55  50  82 N5        30.20S
$$
MNZ029>031-032-039>041-046>048-054>057-064-230800-
   West Central Minnesota

CITY           SKY/WX    TMP DP  RH WIND       PRES   REMARKS
FERGUS FALLS   PTCLDY    61  54  77 N5        30.26S
WHEATON        CLEAR     59  55  88 NW3       30.27S
MORRIS         CLEAR     59  57  94 N6        30.24S
ALEXANDRIA     CLEAR     63  58  83 NW5       30.26S
ELBOW LAKE     FAIR      60  57  91 N3        30.25S
WADENA         CLEAR     57  55  94 NW5       30.25S
GLENWOOD       CLEAR     61  55  82 N5        30.25S
APPLETON       CLEAR     57  54  88 CALM      30.23S
BENSON         CLEAR     55  54  94 N5        30.24S
ORTONVILLE     CLEAR     63  55  77 NE3       30.24S
MADISON        CLEAR     61  57  88 CALM      30.24S
WILLMAR        FAIR      61  54  77 N5        30.24F
$$
MNZ033>034-036-042>043-049>051-058-059-230800-
   Central Minnesota

CITY           SKY/WX    TMP DP  RH WIND       PRES   REMARKS
ST CLOUD       CLEAR     62  55  77 NW3       30.21R
SAUK CENTRE    FAIR      59  55  85 NW6       30.24S
PAYNESVILLE    CLEAR     60  53  78 CALM      30.23F
AITKIN         CLEAR     55  50  82 CALM      30.21R
PINE RIVER     CLEAR     55  54  94 CALM      30.26S
BRAINERD       CLEAR     57  53  86 CALM      30.23R
STAPLES        CLEAR     57  52  82 NW3       30.24S
LONG PRAIRIE   FAIR      59  52  77 NW3       30.25S
LITTLE FALLS   CLEAR     59  54  82 NW3       30.23S
LITCHFIELD     PTCLDY    63  57  82 NW5       30.23R
BUFFALO        CLEAR     66  53  63 N3        30.21S
MAPLE LAKE     CLEAR     64  55  72 NW5       30.22S
$$
MNZ037-044-045-052-053-230800-
   East Central Minnesota

CITY           SKY/WX    TMP DP  RH WIND       PRES   REMARKS
PRINCETON      CLEAR     59  55  88 CALM      30.21R
MORA           CLEAR     59  52  77 CALM      30.22R
CAMBRIDGE      CLEAR     63  54  72 CALM      30.19R
RUSH CITY      PTCLDY    58  55  87 CALM      30.20R
MOOSE LAKE     CLEAR     54  52  94 CALM      30.18S
HINCKLEY       FAIR      59  55  88 NW5       30.20R
CLOQUET        CLEAR     55  52  88 NW5       30.20R
MCGREGOR       CLEAR     57  54  88 CALM      30.21S
$$
MNZ071>073-080-081-089-090-097-098-230800-
   Southwest Minnesota

CITY           SKY/WX    TMP DP  RH WIND       PRES   REMARKS
MONTEVIDEO     CLEAR     61  55  82 N5        30.24S
GRANITE FALLS  CLEAR     60  56  85 NW3       30.24F
CANBY          CLEAR     58  56  92 W3        30.26S
MARSHALL       CLEAR     57  54  88 NW5       30.23F
REDWOOD FALLS  CLEAR     65  57  75 NW7       30.22S
OLIVIA         CLEAR     59  55  88 N3        30.21F
PIPESTONE      CLEAR     61  54  77 CALM      30.26S
WINDOM         CLEAR     61  55  82 NW7       30.23S
WORTHINGTON    CLEAR     59  55  88 N5        30.25S
JACKSON        CLEAR     61  54  77 NW8       30.23S
TRACY          CLEAR     62  57  83 NW6       30.25S
SLAYTON        CLEAR     61  55  82 CALM      30.26S
$$
MNZ065>067-074>077-082>085-091>093-230800-
   South Central Minnesota

CITY           SKY/WX    TMP DP  RH WIND       PRES   REMARKS
MANKATO        CLEAR     63  54  72 N7        30.20R
NEW ULM        CLEAR     61  57  88 NW7       30.21S
ST JAMES       CLEAR     59  55  88 NW3       30.22S
FAIRMONT       CLEAR     63  54  72 N7        30.21S
GLENCOE        CLEAR     64  54  70 NW5       30.20S
FARIBAULT      CLEAR     64  55  72 N3        30.18S
OWATONNA       CLEAR     61  55  82 N6        30.18S
WASECA         CLEAR     61  52  72 NW6       30.20S
ALBERT LEA     CLEAR     64  55  72 N5        30.18R
$$
MNZ078>079-086>088-094>096-230800-
   Southeast Minnesota

CITY           SKY/WX    TMP DP  RH WIND       PRES   REMARKS
ROCHESTER      CLEAR     64  56  75 N8        30.18R
RED WING       CLEAR     68  57  68 NE5       30.15R
STANTON        CLEAR     63  56  79 CALM      30.16S
DODGE CENTER   CLEAR     63  57  82 N3        30.18R
WINONA         PTCLDY    70  63  78 CALM      30.15R
AUSTIN         CLEAR     63  55  77 N5        30.17S
PRESTON        CLEAR     63  62  95 N5        30.17R
$$
ABBREVIATIONS USED IN REMARKS
   TC - TEMPERATURES IN CELSIUS
  WCI - WIND CHILL INDEX
   HX - HEAT INDEX
  VSB - VISIBILITY
$$



USA.gov is the U.S. government's official web portal to all federal, state and local government web resources and services.